Time,TemperatureF,DewpointF,PressureIn,WindDirection,WindDirectionDegrees,WindSpeedMPH,WindSpeedGustMPH,Humidity,HourlyPrecipIn,Conditions,Clouds,dailyrainin,SoftwareType,DateUTC
2013-02-13 00:07:00,33.1,32.6,29.79,ESE,112,0.0,-999.0,98,-99.99,,,0.00,Acu-Link.com,2013-02-13 05:07:00,
2013-02-13 00:22:00,32.5,32.0,29.79,SE,135,2.2,-999.0,98,-99.99,,,0.00,Acu-Link.com,2013-02-13 05:22:00,
2013-02-13 00:37:00,32.4,31.9,29.80,SW,225,1.1,-999.0,98,-99.99,,,0.00,Acu-Link.com,2013-02-13 05:37:00,
2013-02-13 00:53:00,31.8,31.3,29.81,SSE,157,0.0,-999.0,98,-99.99,,,0.00,Acu-Link.com,2013-02-13 05:53:00,
2013-02-13 01:08:00,31.3,30.8,29.80,South,180,1.1,-999.0,98,-99.99,,,0.00,Acu-Link.com,2013-02-13 06:08:00,
2013-02-13 01:23:00,30.6,30.1,29.79,East,90,0.0,-999.0,98,-99.99,,,0.00,Acu-Link.com,2013-02-13 06:23:00,
2013-02-13 01:38:00,29.8,29.3,29.78,SW,225,0.0,-999.0,98,-99.99,,,0.00,Acu-Link.com,2013-02-13 06:38:00,
2013-02-13 01:54:00,29.8,29.3,29.79,South,180,0.0,-999.0,98,-99.99,,,0.00,Acu-Link.com,2013-02-13 06:54:00,
2013-02-13 02:09:00,29.5,29.0,29.78,West,270,1.1,-999.0,98,-99.99,,,0.00,Acu-Link.com,2013-02-13 07:09:00,
2013-02-13 02:24:00,29.8,29.3,29.79,SSE,157,0.0,-999.0,98,-99.99,,,0.00,Acu-Link.com,2013-02-13 07:24:00,
2013-02-13 02:40:00,30.0,29.5,29.79,SSE,157,1.6,-999.0,98,-99.99,,,0.00,Acu-Link.com,2013-02-13 07:40:00,
2013-02-13 02:55:00,29.8,29.3,29.79,ENE,67,1.1,-999.0,98,-99.99,,,0.00,Acu-Link.com,2013-02-13 07:55:00,
2013-02-13 03:10:00,30.0,29.5,29.79,West,270,0.0,-999.0,98,-99.99,,,0.00,Acu-Link.com,2013-02-13 08:10:00,
2013-02-13 03:26:00,30.2,29.7,29.80,SE,135,0.0,-999.0,98,-99.99,,,0.00,Acu-Link.com,2013-02-13 08:26:00,
2013-02-13 03:41:00,30.4,29.9,29.81,ESE,112,0.0,-999.0,98,-99.99,,,0.00,Acu-Link.com,2013-02-13 08:41:00,
2013-02-13 03:56:00,29.8,29.3,29.82,SSW,202,1.1,-999.0,98,-99.99,,,0.00,Acu-Link.com,2013-02-13 08:56:00,
2013-02-13 04:16:00,29.8,29.3,29.82,WSW,247,1.1,-999.0,98,-99.99,,,0.00,Acu-Link.com,2013-02-13 09:16:00,
2013-02-13 04:31:00,30.0,29.5,29.82,SSW,202,2.2,-999.0,98,-99.99,,,0.00,Acu-Link.com,2013-02-13 09:31:00,
2013-02-13 04:46:00,29.8,29.3,29.83,NE,45,2.7,-999.0,98,-99.99,,,0.00,Acu-Link.com,2013-02-13 09:46:00,
2013-02-13 05:01:00,29.1,28.6,29.83,NE,45,1.1,-999.0,98,-99.99,,,0.00,Acu-Link.com,2013-02-13 10:01:00,
2013-02-13 05:16:00,28.8,28.3,29.83,South,180,0.0,-999.0,98,-99.99,,,0.00,Acu-Link.com,2013-02-13 10:16:00,
2013-02-13 05:31:00,28.4,27.9,29.83,West,270,0.0,-999.0,98,-99.99,,,0.00,Acu-Link.com,2013-02-13 10:31:00,
2013-02-13 05:47:00,28.4,27.9,29.83,SSW,202,0.0,-999.0,98,-99.99,,,0.00,Acu-Link.com,2013-02-13 10:47:00,
2013-02-13 06:02:00,27.9,27.4,29.83,ESE,112,0.0,-999.0,98,-99.99,,,0.00,Acu-Link.com,2013-02-13 11:02:00,
2013-02-13 06:17:00,27.1,26.7,29.83,ESE,112,0.0,-999.0,98,-99.99,,,0.00,Acu-Link.com,2013-02-13 11:17:00,
2013-02-13 06:32:00,26.4,25.9,29.83,SW,225,0.0,-999.0,98,-99.99,,,0.00,Acu-Link.com,2013-02-13 11:32:00,
2013-02-13 06:48:00,26.2,25.8,29.83,WSW,247,0.0,-999.0,98,-99.99,,,0.00,Acu-Link.com,2013-02-13 11:48:00,
2013-02-13 07:03:00,26.2,25.8,29.84,SW,225,0.0,-999.0,98,-99.99,,,0.00,Acu-Link.com,2013-02-13 12:03:00,
2013-02-13 07:18:00,27.3,26.8,29.84,SSW,202,0.0,-999.0,98,-99.99,,,0.00,Acu-Link.com,2013-02-13 12:18:00,
2013-02-13 07:33:00,28.4,27.9,29.84,East,90,0.0,-999.0,98,-99.99,,,0.00,Acu-Link.com,2013-02-13 12:33:00,
2013-02-13 07:49:00,29.5,29.0,29.84,SE,135,0.0,-999.0,98,-99.99,,,0.00,Acu-Link.com,2013-02-13 12:49:00,
2013-02-13 08:04:00,30.4,29.9,29.84,SSW,202,0.0,-999.0,98,-99.99,,,0.00,Acu-Link.com,2013-02-13 13:04:00,
2013-02-13 08:19:00,31.8,31.3,29.84,West,270,1.6,-999.0,98,-99.99,,,0.00,Acu-Link.com,2013-02-13 13:19:00,
2013-02-13 08:34:00,33.3,32.8,29.84,ESE,112,0.0,-999.0,98,-99.99,,,0.00,Acu-Link.com,2013-02-13 13:34:00,
2013-02-13 08:50:00,34.3,33.8,29.84,SW,225,0.0,-999.0,98,-99.99,,,0.00,Acu-Link.com,2013-02-13 13:50:00,
2013-02-13 09:05:00,35.4,34.9,29.85,SW,225,1.6,-999.0,98,-99.99,,,0.00,Acu-Link.com,2013-02-13 14:05:00,
2013-02-13 09:20:00,36.5,36.0,29.85,West,270,0.0,-999.0,98,-99.99,,,0.00,Acu-Link.com,2013-02-13 14:20:00,
2013-02-13 09:35:00,37.0,36.5,29.84,ESE,112,7.4,-999.0,98,-99.99,,,0.00,Acu-Link.com,2013-02-13 14:35:00,
2013-02-13 09:51:00,37.8,37.2,29.83,ESE,112,2.2,-999.0,98,-99.99,,,0.00,Acu-Link.com,2013-02-13 14:51:00,
2013-02-13 10:06:00,37.9,37.4,29.83,SSE,157,3.8,-999.0,98,-99.99,,,0.00,Acu-Link.com,2013-02-13 15:06:00,
2013-02-13 10:21:00,38.7,38.1,29.83,NW,315,0.0,-999.0,98,-99.99,,,0.00,Acu-Link.com,2013-02-13 15:21:00,
2013-02-13 10:37:00,39.2,38.7,29.82,SE,135,5.1,-999.0,98,-99.99,,,0.00,Acu-Link.com,2013-02-13 15:37:00,
2013-02-13 10:52:00,39.9,39.4,29.82,SE,135,1.6,-999.0,98,-99.99,,,0.00,Acu-Link.com,2013-02-13 15:52:00,
2013-02-13 11:07:00,40.3,39.8,29.81,SSW,202,1.6,-999.0,98,-99.99,,,0.00,Acu-Link.com,2013-02-13 16:07:00,
2013-02-13 11:22:00,41.2,40.7,29.81,ESE,112,1.1,-999.0,98,-99.99,,,0.00,Acu-Link.com,2013-02-13 16:22:00,
2013-02-13 11:38:00,41.9,41.4,29.81,West,270,2.2,-999.0,98,-99.99,,,0.00,Acu-Link.com,2013-02-13 16:38:00,
2013-02-13 11:53:00,42.6,42.1,29.81,West,270,3.1,-999.0,98,-99.99,,,0.00,Acu-Link.com,2013-02-13 16:53:00,
2013-02-13 12:08:00,42.3,41.7,29.80,East,90,2.2,-999.0,98,-99.99,,,0.00,Acu-Link.com,2013-02-13 17:08:00,
2013-02-13 12:24:00,43.0,42.5,29.80,East,90,0.0,-999.0,98,-99.99,,,0.00,Acu-Link.com,2013-02-13 17:24:00,
2013-02-13 12:39:00,43.9,43.4,29.80,NNE,22,0.0,-999.0,98,-99.99,,,0.00,Acu-Link.com,2013-02-13 17:39:00,
2013-02-13 12:54:00,44.1,43.5,29.79,West,270,2.7,-999.0,98,-99.99,,,0.00,Acu-Link.com,2013-02-13 17:54:00,
2013-02-13 13:09:00,43.7,43.2,29.79,ENE,67,1.6,-999.0,98,-99.99,,,0.00,Acu-Link.com,2013-02-13 18:09:00,
2013-02-13 13:25:00,44.1,43.5,29.79,SSE,157,0.0,-999.0,98,-99.99,,,0.00,Acu-Link.com,2013-02-13 18:25:00,
2013-02-13 13:40:00,45.3,44.8,29.78,ESE,112,9.4,-999.0,98,-99.99,,,0.00,Acu-Link.com,2013-02-13 18:40:00,
2013-02-13 13:55:00,46.0,45.5,29.78,East,90,0.0,-999.0,98,-99.99,,,0.00,Acu-Link.com,2013-02-13 18:55:00,
2013-02-13 14:10:00,44.6,44.1,29.78,ESE,112,2.2,-999.0,98,-99.99,,,0.00,Acu-Link.com,2013-02-13 19:10:00,
2013-02-13 14:26:00,42.4,41.9,29.77,ENE,67,1.1,-999.0,98,-99.99,,,0.00,Acu-Link.com,2013-02-13 19:26:00,
2013-02-13 14:41:00,41.7,41.2,29.77,ESE,112,1.1,-999.0,98,-99.99,,,0.00,Acu-Link.com,2013-02-13 19:41:00,
2013-02-13 14:56:00,41.9,41.4,29.77,West,270,0.0,-999.0,98,-99.99,,,0.00,Acu-Link.com,2013-02-13 19:56:00,
2013-02-13 15:12:00,41.5,41.0,29.76,WSW,247,0.0,-999.0,98,-99.99,,,0.00,Acu-Link.com,2013-02-13 20:12:00,
2013-02-13 15:27:00,41.5,41.0,29.76,ESE,112,0.0,-999.0,98,-99.99,,,0.00,Acu-Link.com,2013-02-13 20:27:00,
2013-02-13 15:42:00,41.2,40.7,29.75,South,180,1.6,-999.0,98,-99.99,,,0.00,Acu-Link.com,2013-02-13 20:42:00,
2013-02-13 15:58:00,40.8,40.3,29.75,North,0,0.0,-999.0,98,-99.99,,,0.00,Acu-Link.com,2013-02-13 20:58:00,
2013-02-13 16:13:00,40.3,39.8,29.75,SSW,202,0.0,-999.0,98,-99.99,,,0.00,Acu-Link.com,2013-02-13 21:13:00,
2013-02-13 16:28:00,39.7,39.2,29.74,NE,45,1.1,-999.0,98,-99.99,,,0.00,Acu-Link.com,2013-02-13 21:28:00,
2013-02-13 16:43:00,39.2,38.7,29.74,SSE,157,0.0,-999.0,98,-99.99,,,0.00,Acu-Link.com,2013-02-13 21:43:00,
2013-02-13 16:59:00,38.1,37.6,29.75,SSW,202,0.0,-999.0,98,-99.99,,,0.00,Acu-Link.com,2013-02-13 21:59:00,
2013-02-13 17:14:00,36.5,36.0,29.75,ESE,112,0.0,-999.0,98,-99.99,,,0.00,Acu-Link.com,2013-02-13 22:14:00,
2013-02-13 17:29:00,35.2,34.7,29.75,SSE,157,0.0,-999.0,98,-99.99,,,0.00,Acu-Link.com,2013-02-13 22:29:00,
2013-02-13 17:45:00,34.3,33.8,29.75,ESE,112,0.0,-999.0,98,-99.99,,,0.00,Acu-Link.com,2013-02-13 22:45:00,
2013-02-13 18:00:00,34.0,33.5,29.75,WNW,292,0.0,-999.0,98,-99.99,,,0.00,Acu-Link.com,2013-02-13 23:00:00,
2013-02-13 18:15:00,34.3,33.8,29.75,SSW,202,0.0,-999.0,98,-99.99,,,0.00,Acu-Link.com,2013-02-13 23:15:00,
2013-02-13 18:31:00,33.6,33.1,29.75,SE,135,0.0,-999.0,98,-99.99,,,0.00,Acu-Link.com,2013-02-13 23:31:00,
2013-02-13 18:46:00,33.4,32.9,29.75,WNW,292,0.0,-999.0,98,-99.99,,,0.00,Acu-Link.com,2013-02-13 23:46:00,
2013-02-13 19:01:00,33.3,32.8,29.75,ESE,112,0.0,-999.0,98,-99.99,,,0.00,Acu-Link.com,2013-02-14 00:01:00,
2013-02-13 19:16:00,33.6,33.1,29.75,ESE,112,0.0,-999.0,98,-99.99,,,0.00,Acu-Link.com,2013-02-14 00:16:00,
2013-02-13 19:31:00,33.1,32.6,29.76,ESE,112,0.0,-999.0,98,-99.99,,,0.00,Acu-Link.com,2013-02-14 00:31:00,
2013-02-13 19:47:00,33.3,32.8,29.75,East,90,0.0,-999.0,98,-99.99,,,0.00,Acu-Link.com,2013-02-14 00:47:00,
2013-02-13 20:02:00,33.1,32.6,29.74,East,90,0.0,-999.0,98,-99.99,,,0.00,Acu-Link.com,2013-02-14 01:02:00,
2013-02-13 20:17:00,32.7,32.2,29.75,ESE,112,0.0,-999.0,98,-99.99,,,0.00,Acu-Link.com,2013-02-14 01:17:00,
2013-02-13 20:33:00,32.4,31.9,29.75,South,180,0.0,-999.0,98,-99.99,,,0.00,Acu-Link.com,2013-02-14 01:33:00,
2013-02-13 20:48:00,32.4,31.9,29.74,East,90,0.0,-999.0,98,-99.99,,,0.00,Acu-Link.com,2013-02-14 01:48:00,
2013-02-13 21:03:00,32.4,31.9,29.73,NE,45,0.0,-999.0,98,-99.99,,,0.00,Acu-Link.com,2013-02-14 02:03:00,
2013-02-13 21:19:00,32.5,32.0,29.73,NE,45,0.0,-999.0,98,-99.99,,,0.00,Acu-Link.com,2013-02-14 02:19:00,
2013-02-13 21:34:00,32.9,32.4,29.72,NNE,22,1.6,-999.0,98,-99.99,,,0.00,Acu-Link.com,2013-02-14 02:34:00,
2013-02-13 21:49:00,33.3,32.8,29.72,NE,45,1.6,-999.0,98,-99.99,,,0.00,Acu-Link.com,2013-02-14 02:49:00,
2013-02-13 22:04:00,33.4,32.9,29.72,East,90,0.0,-999.0,98,-99.99,,,0.00,Acu-Link.com,2013-02-14 03:04:00,
2013-02-13 22:19:00,33.4,32.9,29.73,East,90,0.0,-999.0,98,-99.99,,,0.00,Acu-Link.com,2013-02-14 03:19:00,
2013-02-13 22:34:00,33.6,33.1,29.73,NNW,337,0.0,-999.0,98,-99.99,,,0.00,Acu-Link.com,2013-02-14 03:34:00,
2013-02-13 22:50:00,33.8,33.3,29.71,ENE,67,2.2,-999.0,98,-99.99,,,0.00,Acu-Link.com,2013-02-14 03:50:00,
2013-02-13 23:05:00,33.8,33.3,29.73,East,90,0.0,-999.0,98,-99.99,,,0.00,Acu-Link.com,2013-02-14 04:05:00,
2013-02-13 23:20:00,33.6,33.1,29.73,ESE,112,2.2,-999.0,98,-99.99,,,0.00,Acu-Link.com,2013-02-14 04:20:00,
2013-02-13 23:36:00,33.6,33.1,29.71,NE,45,0.0,-999.0,98,-99.99,,,0.00,Acu-Link.com,2013-02-14 04:36:00,
2013-02-13 23:51:00,33.6,33.1,29.69,ESE,112,0.0,-999.0,98,-99.99,,,0.00,Acu-Link.com,2013-02-14 04:51:00,